[[{"header":{"parameterUnit":"m.s-1","parameterCategory":1,"la1":30.2991,"la2":30.254,"lo1":-89.0895,"lo2":-89.0444,"dy":0.0017,"dx":0.0017,"nx":28,"ny":28,"refTime":"2023-10-11T21:00:00:Z","depth":0,"parameterNumber":2,"parameterNumberName":"U-component_of_WINDS"},"data":[0,0,0,0,0,0,0,0,0,0,0,0,0,0,0,0,0,0,0,0,0,0,0,0,0,0,0,0,0,0,0,0,0,0,0,0,0,0,0,0,0,0,0,0,0,0,0,0,0,0,0,0,0,0,0,0,0,0,-4.5462,-4.5462,0,-4.5436,-4.5435,-4.5435,-4.5279,-4.5276,-4.5272,-4.5268,-4.5244,-4.5246,-4.5249,0,0,0,0,0,0,0,0,0,0,0,0,0,-4.5382,-4.5384,-4.5462,-4.5462,-4.5462,-4.5436,-4.5435,-4.5435,-4.528,-4.5275,-4.5271,-4.5267,-4.5243,-4.5246,-4.5249,0,0,0,0,0,0,0,0,0,0,0,0,0,-4.5392,-4.5385,-4.5462,-4.5381,-4.5374,-4.5436,-4.5435,-4.5435,-4.5281,-4.5275,-4.527,-4.5264,-4.5242,-4.5246,-4.525,-4.5389,0,0,-4.5263,-4.5265,0,0,0,0,0,0,0,0,-4.5392,-4.5395,-4.5394,-4.5387,-4.5379,-4.5355,-4.5397,-4.5419,-4.5282,-4.5316,-4.5268,-4.5262,-4.5285,-4.5286,-4.5293,-4.5388,-4.5387,-4.5263,-4.5266,-4.5268,-4.5269,0,0,0,0,0,0,0,-4.5391,-4.5396,-4.5452,-4.5394,-4.5385,-4.5347,-4.5342,-4.5401,-4.5333,-4.5313,-4.5302,-4.53,-4.528,-4.5289,-4.5291,-4.5386,-4.5263,-4.5267,-4.527,-4.5271,-4.5594,-4.5599,0,0,0,0,0,0,-4.5402,-4.5396,-4.5453,-4.5451,-4.5371,-4.5353,-4.5348,-4.5368,-4.5332,-4.5321,-4.5305,-4.5293,-4.5285,-4.5287,-4.529,-4.5451,-4.5268,-4.5272,-4.5274,-4.5588,-4.5595,-4.5601,0,0,0,0,0,0,-4.54,-4.5408,-4.5454,-4.542,-4.5423,-4.536,-4.5385,-4.5371,-4.538,-4.5326,-4.5313,-4.5327,-4.5281,-4.5284,-4.5365,-4.5448,-4.5274,-4.5277,-4.5581,-4.559,-4.5598,-4.5773,0,0,0,0,0,0,-4.5399,-4.5409,-4.546,-4.5423,-4.5426,-4.553,-4.539,-4.5374,-4.5387,-4.5371,-4.5343,-4.5333,-4.5276,-4.536,-4.537,-4.545,-4.5281,-4.5573,-4.5585,-4.5595,-4.576,-4.5787,-4.5811,0,0,0,0,0,-4.5396,-4.5511,-4.5464,-4.5472,-4.5489,-4.5534,-4.5536,-4.5468,-4.5394,-4.5446,-4.5411,-4.5334,-4.5437,-4.5369,-4.5379,-4.5463,-4.5567,-4.5581,-4.5594,-4.5749,-4.5782,-4.581,0,0,0,0,0,0,-4.5561,-4.5505,-4.5452,-4.5557,-4.5552,-4.5508,-4.5571,-4.5505,-4.5521,-4.5506,-4.5421,-4.5416,-4.5511,-4.5494,-4.542,-4.5595,-4.5489,-4.5505,-4.5603,-4.5634,-4.5659,-4.5662,-4.5284,0,0,0,0,0,-4.561,-4.5651,-4.5599,-4.5698,-4.5698,-4.5636,-4.5653,-4.5601,-4.5592,-4.5589,-4.556,-4.5555,-4.5586,-4.5609,-4.5634,-4.5756,-4.5749,-4.5818,-4.5844,-4.5865,-4.588,-4.5944,-4.5975,-4.5646,-4.5646,-4.5645,0,0,-4.5711,-4.5685,-4.5716,-4.573,-4.572,-4.5765,-4.5635,-4.5688,-4.5721,-4.5597,-4.5672,-4.5651,-4.564,-4.5743,-4.5786,-4.5732,-4.5969,-4.5882,-4.5899,-4.5903,-4.5962,-4.5993,-4.6021,-4.5655,-4.5653,-4.5652,0,0,-4.5919,-4.5903,-4.5983,-4.5975,-4.596,-4.5918,-4.5938,-4.5904,-4.5885,-4.5958,-4.5867,-4.5905,-4.596,-4.5956,-4.5962,-4.6167,-4.6097,-4.6178,-4.6311,-4.6375,-4.6401,-4.6423,-4.6498,-4.6526,-4.6193,-4.6194,-4.6194,0,-4.6047,-4.611,-4.6033,-4.6093,-4.6102,-4.5991,-4.6072,-4.6068,-4.6064,-4.6073,-4.6011,-4.6078,-4.6063,-4.6164,-4.6214,-4.6221,-4.6242,-4.6182,-4.6403,-4.6425,-4.6445,-4.6515,-4.6544,-4.6204,-4.6203,-4.6202,-4.6201,0,-4.6269,-4.6315,-4.6381,-4.6379,-4.6395,-4.6466,-4.64,-4.6426,-4.6372,-4.6337,-4.6414,-4.6391,-4.6411,-4.643,-4.6379,-4.6524,-4.6491,-4.6418,-4.6309,-4.6488,-4.6553,-4.6579,-4.6218,-4.6215,-4.6212,-4.6209,0,0,-4.6582,-4.6534,-4.6561,-4.6558,-4.6533,-4.6568,-4.6633,-4.6651,-4.6676,-4.6676,-4.6729,-4.6778,-4.671,-4.6716,-4.6663,-4.6719,-4.6885,-4.6638,-4.6637,-4.6686,-4.7045,-4.7102,-4.7134,-4.6837,-4.6842,-4.6846,-4.7047,0,-4.6782,-4.689,-4.6822,-4.6942,-4.6984,-4.6878,-4.6935,-4.6927,-4.6895,-4.6927,-4.6891,-4.6928,-4.6835,-4.6838,-4.6888,-4.6854,-4.6956,-4.6838,-4.6888,-4.6891,-4.6896,-4.7168,-4.7228,-4.7419,-4.7071,-4.7075,-4.7078,0,-4.703,-4.704,-4.7164,-4.7131,-4.7146,-4.7198,-4.721,-4.724,-4.7229,-4.7202,-4.7209,-4.7142,-4.7204,-4.7096,-4.7182,-4.7104,-4.712,-4.7106,-4.7112,-4.7116,-4.6997,-4.7181,-4.7478,-4.7508,-4.7117,-4.7114,-4.7111,0,-4.7248,-4.7292,-4.7372,-4.7373,-4.7336,-4.7376,-4.7362,-4.7345,-4.736,-4.737,-4.7379,-4.7397,-4.7407,-4.7423,-4.7362,-4.7289,-4.7457,-4.7344,-4.7438,-4.744,-4.748,-4.7479,-4.7786,-4.7488,-4.7487,-4.7487,-4.7486,0,-4.748,-4.756,-4.7469,-4.7519,-4.7606,-4.7527,-4.7615,-4.759,-4.7576,-4.7619,-4.7529,-4.7572,-4.7488,-4.7523,-4.7476,-4.7556,-4.756,-4.7542,-4.7529,-4.7551,-4.7554,-4.7562,-4.7548,-4.7494,-4.7492,-4.7491,-4.749,0,-4.7739,-4.7681,-4.7761,-4.7719,-4.771,-4.7777,-4.7741,-4.7785,-4.7747,-4.7803,-4.7812,-4.7753,-4.7789,-4.7729,-4.7759,-4.7727,-4.7838,-4.7803,-4.7842,-4.7833,-4.7931,-4.7923,-4.8256,-4.8296,-4.7971,-4.7974,-4.7976,0,-4.7891,-4.795,-4.7915,-4.7937,-4.7928,-4.7965,-4.798,-4.7904,-4.7924,-4.7915,-4.7961,-4.7989,-4.8008,-4.8071,-4.8031,-4.8053,-4.802,-4.8135,-4.8023,-4.8044,-4.8024,-4.8022,-4.8028,-4.8159,-4.8163,-4.8166,-4.8168,0,-4.8169,-4.8137,-4.8162,-4.8177,-4.8197,-4.8205,-4.8206,-4.823,-4.815,-4.8177,-4.8212,-4.8227,-4.8256,-4.8286,-4.8298,-4.8285,-4.8215,-4.8203,-4.8227,-4.8251,-4.8272,-4.8264,-4.7907,-4.8197,-4.8194,-4.8192,-4.819,-4.8189,-4.8381,-4.8428,-4.8411,-4.8441,-4.8434,-4.8438,-4.8477,-4.8443,-4.8471,-4.8489,-4.8442,-4.8489,-4.8476,-4.8485,-4.848,-4.8516,-4.8465,-4.8499,-4.8508,-4.8518,-4.8534,-4.8265,-4.8518,-4.8517,-4.8516,-4.8515,-4.8514,0,-4.8655,-4.8638,-4.8667,-4.8671,-4.8696,-4.8625,-4.8623,-4.8648,-4.869,-4.8683,-4.8703,-4.8745,-4.8773,-4.8735,-4.8757,-4.8793,-4.8762,-4.8802,-4.88,-4.8798,-4.8577,-4.8555,-4.8827,-4.8827,-4.8827,-4.8827,-4.8827,-4.8827,-4.8801,-4.8879,-4.8845,-4.8918,-4.89,-4.8945,-4.895,-4.8953,-4.8947,-4.8997,-4.902,-4.8994,-4.8975,-4.8995,-4.9018,-4.9006,-4.902,-4.9072,-4.905,-4.8844,-4.8814,-4.8784,-4.8764,-4.9075,-4.9075,-4.9267,-4.9269,-4.9271]},{"header":{"parameterUnit":"m.s-1","parameterCategory":1,"la1":30.2991,"la2":30.254,"lo1":-89.0895,"lo2":-89.0444,"dy":0.0017,"dx":0.0017,"nx":28,"ny":28,"refTime":"2023-10-11T21:00:00:Z","depth":0,"parameterNumber":3,"parameterNumberName":"V-component_of_WINDS"},"data":[0,0,0,0,0,0,0,0,0,0,0,0,0,0,0,0,0,0,0,0,0,0,0,0,0,0,0,0,0,0,0,0,0,0,0,0,0,0,0,0,0,0,0,0,0,0,0,0,0,0,0,0,0,0,0,0,0,0,-3.4135,-3.4135,0,-3.4128,-3.4128,-3.4128,-3.4078,-3.4077,-3.4076,-3.4074,-3.4068,-3.4069,-3.407,0,0,0,0,0,0,0,0,0,0,0,0,0,-3.4104,-3.4105,-3.4135,-3.4135,-3.4135,-3.4128,-3.4128,-3.4128,-3.4078,-3.4077,-3.4075,-3.4074,-3.4068,-3.4069,-3.407,0,0,0,0,0,0,0,0,0,0,0,0,0,-3.4109,-3.4105,-3.4135,-3.4109,-3.4107,-3.4128,-3.4128,-3.4128,-3.4079,-3.4077,-3.4075,-3.4073,-3.4067,-3.4069,-3.407,-3.4116,0,0,-3.4075,-3.4075,0,0,0,0,0,0,0,0,-3.4109,-3.4111,-3.4113,-3.4111,-3.4108,-3.4102,-3.4115,-3.4124,-3.4079,-3.4089,-3.4074,-3.4072,-3.4081,-3.4081,-3.4084,-3.4116,-3.4116,-3.4075,-3.4076,-3.4076,-3.4077,0,0,0,0,0,0,0,-3.4109,-3.4111,-3.4132,-3.4113,-3.411,-3.4098,-3.4096,-3.4116,-3.4096,-3.4088,-3.4085,-3.4084,-3.4079,-3.4083,-3.4083,-3.4116,-3.4075,-3.4076,-3.4077,-3.4078,-3.4184,-3.4186,0,0,0,0,0,0,-3.4112,-3.4111,-3.4133,-3.4132,-3.4104,-3.41,-3.4098,-3.4106,-3.4095,-3.4092,-3.4086,-3.4082,-3.4081,-3.4082,-3.4083,-3.4136,-3.4076,-3.4078,-3.4079,-3.4182,-3.4185,-3.4187,0,0,0,0,0,0,-3.4112,-3.4114,-3.4133,-3.412,-3.4122,-3.4102,-3.4111,-3.4107,-3.411,-3.4093,-3.409,-3.4093,-3.408,-3.4081,-3.4108,-3.4135,-3.4078,-3.408,-3.418,-3.4183,-3.4186,-3.4243,0,0,0,0,0,0,-3.4111,-3.4115,-3.4132,-3.4121,-3.4123,-3.4159,-3.4113,-3.4108,-3.4113,-3.4108,-3.4099,-3.4096,-3.4078,-3.4106,-3.411,-3.4136,-3.4081,-3.4178,-3.4181,-3.4185,-3.4238,-3.4247,-3.4255,0,0,0,0,0,-3.411,-3.4149,-3.4133,-3.4136,-3.4144,-3.416,-3.4161,-3.4139,-3.4115,-3.4133,-3.4122,-3.4097,-3.4131,-3.4109,-3.4113,-3.414,-3.4176,-3.418,-3.4185,-3.4235,-3.4246,-3.4255,0,0,0,0,0,0,-3.4165,-3.4147,-3.413,-3.4166,-3.4165,-3.4152,-3.4173,-3.4152,-3.4158,-3.4153,-3.4125,-3.4124,-3.4155,-3.415,-3.4126,-3.4184,-3.4149,-3.4154,-3.4186,-3.4196,-3.4204,-3.4205,-3.4082,0,0,0,0,0,-3.4181,-3.4195,-3.4179,-3.4213,-3.4213,-3.4193,-3.4199,-3.4183,-3.418,-3.418,-3.4171,-3.417,-3.418,-3.4188,-3.4196,-3.4237,-3.4234,-3.4257,-3.4265,-3.4272,-3.4278,-3.4298,-3.4308,-3.4201,-3.4201,-3.4201,0,0,-3.4215,-3.4207,-3.4218,-3.4223,-3.4221,-3.4236,-3.4193,-3.4212,-3.4223,-3.4182,-3.4208,-3.4201,-3.4198,-3.4232,-3.4246,-3.4228,-3.4306,-3.4278,-3.4283,-3.4285,-3.4304,-3.4314,-3.4323,-3.4204,-3.4204,-3.4203,0,0,-3.4284,-3.428,-3.4307,-3.4305,-3.43,-3.4287,-3.4293,-3.4283,-3.4277,-3.4301,-3.4271,-3.4284,-3.4303,-3.4301,-3.4303,-3.437,-3.4348,-3.4374,-3.4417,-3.4438,-3.4446,-3.4453,-3.4478,-3.4487,-3.4379,-3.4379,-3.4379,0,-3.4327,-3.4349,-3.4324,-3.4344,-3.4347,-3.431,-3.4338,-3.4337,-3.4336,-3.4339,-3.4319,-3.4341,-3.4336,-3.4369,-3.4385,-3.4388,-3.4394,-3.4375,-3.4447,-3.4454,-3.446,-3.4483,-3.4492,-3.4382,-3.4382,-3.4382,-3.4381,0,-3.4402,-3.4417,-3.444,-3.4439,-3.4445,-3.4468,-3.4446,-3.4455,-3.4437,-3.4426,-3.4451,-3.4443,-3.445,-3.4456,-3.4439,-3.4486,-3.4476,-3.4452,-3.4417,-3.4474,-3.4495,-3.4504,-3.4387,-3.4386,-3.4385,-3.4384,0,0,-3.4507,-3.4491,-3.45,-3.4499,-3.449,-3.4502,-3.4523,-3.4529,-3.4537,-3.4537,-3.4554,-3.457,-3.4548,-3.455,-3.4532,-3.455,-3.4604,-3.4524,-3.4523,-3.4539,-3.4655,-3.4674,-3.4684,-3.4588,-3.4589,-3.4591,-3.4655,0,-3.4574,-3.461,-3.4587,-3.4627,-3.464,-3.4605,-3.4623,-3.462,-3.461,-3.4619,-3.4607,-3.4619,-3.4588,-3.4589,-3.4605,-3.4594,-3.4627,-3.4589,-3.4604,-3.4605,-3.4607,-3.4695,-3.4715,-3.4777,-3.4663,-3.4665,-3.4666,0,-3.4658,-3.4661,-3.4702,-3.4689,-3.4694,-3.4711,-3.4714,-3.4724,-3.4719,-3.471,-3.4712,-3.4689,-3.4709,-3.4674,-3.4701,-3.4675,-3.468,-3.4675,-3.4677,-3.4678,-3.464,-3.4699,-3.4796,-3.4805,-3.4678,-3.4677,-3.4676,0,-3.4731,-3.4745,-3.4771,-3.4771,-3.4758,-3.477,-3.4765,-3.4759,-3.4763,-3.4766,-3.4768,-3.4773,-3.4776,-3.478,-3.4759,-3.4735,-3.4789,-3.4752,-3.4782,-3.4783,-3.4796,-3.4796,-3.4895,-3.4798,-3.4798,-3.4798,-3.4798,0,-3.4809,-3.4836,-3.4804,-3.482,-3.4848,-3.4821,-3.4849,-3.4841,-3.4835,-3.4848,-3.4817,-3.4831,-3.4802,-3.4813,-3.4797,-3.4821,-3.4823,-3.4816,-3.4812,-3.4819,-3.482,-3.4823,-3.4818,-3.48,-3.48,-3.4799,-3.4799,0,-3.4897,-3.4876,-3.4902,-3.4886,-3.4883,-3.4905,-3.4891,-3.4905,-3.4891,-3.4909,-3.4912,-3.4891,-3.4901,-3.488,-3.4888,-3.4877,-3.4912,-3.4901,-3.4914,-3.4911,-3.4943,-3.494,-3.5048,-3.5061,-3.4955,-3.4956,-3.4957,0,-3.4948,-3.4967,-3.4953,-3.496,-3.4956,-3.4967,-3.4971,-3.4945,-3.4951,-3.4946,-3.4961,-3.4968,-3.4973,-3.4992,-3.4977,-3.4983,-3.4972,-3.5009,-3.4972,-3.4979,-3.4973,-3.4972,-3.4974,-3.5017,-3.5018,-3.5019,-3.502,0,-3.5042,-3.503,-3.5037,-3.504,-3.5046,-3.5047,-3.5046,-3.5053,-3.5025,-3.5033,-3.5043,-3.5047,-3.5054,-3.5062,-3.5064,-3.5059,-3.5035,-3.5031,-3.5039,-3.5047,-3.5054,-3.5051,-3.4935,-3.5029,-3.5028,-3.5028,-3.5027,-3.5027,-3.5113,-3.5128,-3.512,-3.5129,-3.5125,-3.5124,-3.5137,-3.5124,-3.5132,-3.5135,-3.5119,-3.5133,-3.5126,-3.5126,-3.5123,-3.5134,-3.5117,-3.5128,-3.5131,-3.5134,-3.5139,-3.5052,-3.5134,-3.5134,-3.5133,-3.5133,-3.5133,0,-3.5205,-3.5198,-3.5206,-3.5205,-3.5211,-3.5187,-3.5184,-3.5192,-3.5204,-3.5199,-3.5204,-3.5216,-3.5223,-3.5208,-3.5213,-3.5224,-3.5214,-3.5227,-3.5226,-3.5225,-3.5154,-3.5147,-3.5235,-3.5235,-3.5235,-3.5235,-3.5235,-3.5235,-3.5254,-3.5278,-3.5266,-3.5287,-3.528,-3.5292,-3.5293,-3.5292,-3.5288,-3.5302,-3.5308,-3.5298,-3.5289,-3.5293,-3.5299,-3.5294,-3.5298,-3.5315,-3.5307,-3.524,-3.523,-3.5221,-3.5214,-3.5316,-3.5316,-3.5378,-3.5378,-3.5379]}]]